Weather Roundup
Issued by NWS Springfield, MO

Current Version | Previous Version | Text Only | Print | Product List | Glossary On
Versions: 1 2 3 4 5 6 7 8 9 10 11 12 13 14 15 16 17 18 19 20 21 22 23 24 25 26 27 28 29 30 31 32 33 34 35 36 37 38 39 40 41 42 43 44 45 46 47 48 49 50
000
NZUS99 KSGF 271007
HRRSGF

HOURLY WEATHER
NATIONAL WEATHER SERVICE SPRINGFIELD MO
500 AM CDT FRI MAR 27 2015

......SGF CWA......

CITY           SKY/WX    TMP DP  RH WIND       PRES   REMARKS
SPRINGFIELD    LGT RAIN  38  35  89 NW5       30.07S WCI  34
JOPLIN         CLOUDY    39  36  89 NE7       30.10S WCI  34
WEST PLAINS    CLOUDY    38  33  82 MISG      30.06F
ROLLA          CLOUDY    36  28  73 MISG      30.05S
OSAGE BEACH    CLOUDY    39  28  65 N9        30.10R WCI  33
BRANSON        CLOUDY    37  36  93 CALM      30.07S

......SURROUNDING SGF CWA......

CITY           SKY/WX    TMP DP  RH WIND       PRES   REMARKS
CHANUTE        CLOUDY    39  36  89 N13G21    30.13R WCI  31
PARSONS        MOCLDY    40  37  89 NE6       30.13R
COFFEYVILLE    PTCLDY    38  36  92 N7        30.11R WCI  33
EMPORIA        CLOUDY    36  33  89 N15       30.17R WCI  27
GROVE OK       MOCLDY    41  36  81 NE3       30.10R
ROGERS AR      CLOUDY    38  35  89 NE7       30.07S WCI  33
SILOAM SPRINGS MOCLDY    41  30  65 NE8       30.06F
HARRISON AR    CLOUDY    39  34  82 N9        30.06S WCI  33
NEAR YELLVILLE CLOUDY    41  32  70 N5        30.07S

......KANSAS AND MISSOURI......

CITY           SKY/WX    TMP DP  RH WIND       PRES   REMARKS
KANSAS CTY INT CLOUDY    34  30  85 N12       30.17R WCI  25
DOWNTOWN KC    CLOUDY    38  29  70 N14       30.17S WCI  30
COLUMBIA       LGT SNOW  34  32  92 N8        30.11S FOG     WCI  27
SEDALIA        LGT SNOW  35  31  85 N16       30.14R FOG     WCI  25
ST JOSEPH      CLEAR     32  27  81 N12       30.21R WCI  23
ST LOUIS       FLURRIES  36  24  62 N10G18    30.10R WCI  28
SPIRIT OF STL  LGT SNOW  34  27  75 N12       30.11R WCI  25
KIRKSVILLE     CLOUDY    31  24  75 N7        30.15R WCI  24
WICHITA        CLOUDY    40  34  79 N14G21    30.17R WCI  32
TOPEKA         MOCLDY    35  31  85 N10       30.21R WCI  27
OLATHE         CLOUDY    37  32  82 N10       30.15R WCI  30

......TENNESSEE......

CITY           SKY/WX    TMP DP  RH WIND       PRES   REMARKS
MEMPHIS        CLEAR     36  33  89 NW3       30.04R
NASHVILLE      CLEAR     36  33  89 NW5       29.96S WCI  32

......ARKANSAS.......

CITY           SKY/WX    TMP DP  RH WIND       PRES   REMARKS
FAYETTEVILLE   PTCLDY    36  36 100 CALM      30.05F
FT SMITH       CLEAR     43  37  79 E3        30.04F
LITTLE ROCK    CLOUDY    46  35  65 NW3       30.06S

......OKLAHOMA.......

CITY           SKY/WX    TMP DP  RH WIND       PRES   REMARKS
TULSA          CLOUDY    42  36  79 N8        30.06R
PONCA CITY     MOCLDY    41  35  79 N13       30.13R
MCALESTER      MOCLDY    44  36  73 SW8       30.05F
OKLAHOMA CITY  CLOUDY    53  34  48 NW15      30.09R

......IOWA............

CITY           SKY/WX    TMP DP  RH WIND       PRES   REMARKS
DES MOINES     MOCLDY    30  14  51 N9        30.20S WCI  22
QUAD CITIES    CLOUDY    31  19  61 N6        30.12R WCI  25

......ILLINOIS........

CITY           SKY/WX    TMP DP  RH WIND       PRES   REMARKS
QUINCY         CLEAR     28  22  78 N8        30.11S WCI  20
CHICAGO        LGT SNOW  27  22  81 NE13      30.08R WCI  16



USA.gov is the U.S. government's official web portal to all federal, state and local government web resources and services.